Weather History for KARG - November, 2011

Change the Weather History Date:

Friday, November 18, 2011

  Actual Average Record
Temperature  
Mean Temperature 44 °F -  
Max Temperature 53 °F 55 °F 73 °F (2001)
Min Temperature 35 °F 39 °F 17 °F (2014)
Degree Days  
Heating Degree Days 21    
Moisture  
Dew Point 30 °F    
Average Humidity 62    
Maximum Humidity 81    
Minimum Humidity 38    
Precipitation  
Precipitation 0.00 in - - ()
Sea Level Pressure  
Sea Level Pressure 30.22 in    
Wind  
Wind Speed 10 mph (SSE)    
Max Wind Speed 20 mph    
Max Gust Speed 28 mph    
Visibility 10 miles    
Events      
Averages and records for this station are not official NWS values.
T = Trace of Precipitation, MM = Missing Value Source: NWS Daily Summary

Daily Weather History Graph

Daily Weather History Graph

Search for Another Location

Airport or City:

Trip Planner

Search our weather history database for the weather conditions in past years. The results will help you decide how hot, cold, wet, or windy it might be!

Date:

Astronomy

Nov. 18, 2011 Rise Set
Actual Time 6:43 AM CST 4:54 PM CST
Civil Twilight 6:15 AM CST 5:21 PM CST
Nautical Twilight 5:44 AM CST 5:52 PM CST
Astronomical Twilight 5:14 AM CST 6:23 PM CST
Moon No Moon Rise 12:28 PM CST (11/18)
Length of Visible Light 11h 05m
Length of Day
10h 10m
Waning Gibbous, 49% of the Moon is Illuminated
Nov 18
Waning Gibbous
Nov 25
New
Dec 2
First Quarter
Dec 10
Full
Dec 17
Last Quarter

Hourly Weather History & Observations

Time (CST) Temp. Windchill Dew Point Humidity Pressure Visibility Wind Dir Wind Speed Gust Speed Precip Events Conditions
12:15 AM 37.4 °F 31.4 °F 30.2 °F 75% 30.33 in 10.0 mi SSE 8.1 mph - N/A   Clear
12:35 AM 37.4 °F 32.1 °F 28.4 °F 70% 30.32 in 10.0 mi SSE 6.9 mph - N/A   Clear
12:55 AM 37.4 °F 31.4 °F 28.4 °F 70% 30.32 in 10.0 mi SSE 8.1 mph - N/A   Clear
1:15 AM 35.6 °F 31.7 °F 28.4 °F 75% 30.33 in 10.0 mi SSE 4.6 mph - N/A   Clear
1:35 AM 37.4 °F 34.9 °F 28.4 °F 70% 30.33 in 10.0 mi South 3.5 mph - N/A   Clear
1:55 AM 35.6 °F 30.7 °F 30.2 °F 81% 30.32 in 10.0 mi SSE 5.8 mph - N/A   Clear
2:35 AM 35.6 °F 29.2 °F 30.2 °F 81% 30.33 in 10.0 mi SSE 8.1 mph - N/A   Clear
2:55 AM 35.6 °F 28.0 °F 28.4 °F 75% 30.32 in 10.0 mi SSE 10.4 mph - N/A   Clear
3:15 AM 35.6 °F 29.2 °F 28.4 °F 75% 30.32 in 10.0 mi SSE 8.1 mph - N/A   Clear
3:35 AM 35.6 °F 29.9 °F 28.4 °F 75% 30.32 in 10.0 mi SSE 6.9 mph - N/A   Clear
3:55 AM 35.6 °F 29.2 °F 28.4 °F 75% 30.31 in 10.0 mi SSE 8.1 mph - N/A   Clear
4:15 AM 35.6 °F 29.2 °F 28.4 °F 75% 30.31 in 10.0 mi SSE 8.1 mph - N/A   Clear
4:35 AM 35.6 °F 30.7 °F 30.2 °F 81% 30.31 in 10.0 mi SE 5.8 mph - N/A   Clear
4:55 AM 35.6 °F 28.6 °F 28.4 °F 75% 30.31 in 10.0 mi SSE 9.2 mph - N/A   Clear
5:35 AM 35.6 °F 28.6 °F 28.4 °F 75% 30.31 in 10.0 mi SSE 9.2 mph - N/A   Clear
5:55 AM 35.6 °F 28.6 °F 28.4 °F 75% 30.32 in 10.0 mi SSE 9.2 mph - N/A   Clear
6:15 AM 35.6 °F 28.6 °F 28.4 °F 75% 30.32 in 10.0 mi SSE 9.2 mph - N/A   Clear
6:35 AM 35.6 °F 29.2 °F 26.6 °F 70% 30.32 in 10.0 mi SSE 8.1 mph - N/A   Clear
6:55 AM 35.6 °F 29.2 °F 26.6 °F 70% 30.32 in 10.0 mi SSE 8.1 mph - N/A   Clear
7:15 AM 35.6 °F 28.6 °F 28.4 °F 75% 30.32 in 10.0 mi SSE 9.2 mph - N/A   Clear
7:35 AM 37.4 °F 30.3 °F 26.6 °F 65% 30.33 in 10.0 mi SSE 10.4 mph - N/A   Clear
7:55 AM 39.2 °F 32.0 °F 26.6 °F 61% 30.33 in 10.0 mi SSE 11.5 mph - N/A   Clear
8:15 AM 39.2 °F 32.0 °F 26.6 °F 61% 30.32 in 10.0 mi SSE 11.5 mph - N/A   Clear
8:35 AM 42.8 °F 36.2 °F 26.6 °F 53% 30.32 in 10.0 mi SSE 12.7 mph - N/A   Clear
8:55 AM 44.6 °F 38.1 °F 28.4 °F 53% 30.32 in 10.0 mi South 13.8 mph - N/A   Clear
9:15 AM 44.6 °F 37.4 °F 26.6 °F 49% 30.32 in 10.0 mi South 16.1 mph 20.7 mph N/A   Clear
9:35 AM 44.6 °F 36.9 °F 28.4 °F 53% 30.32 in 10.0 mi South 18.4 mph 23.0 mph N/A   Clear
9:55 AM 46.4 °F 39.2 °F 26.6 °F 46% 30.31 in 10.0 mi South 18.4 mph 25.3 mph N/A   Clear
10:15 AM 46.4 °F 39.0 °F 26.6 °F 46% 30.30 in 10.0 mi SSE 19.6 mph - N/A   Clear
10:35 AM 48.2 °F - 26.6 °F 43% 30.30 in 10.0 mi SSE 19.6 mph - N/A   Clear
10:55 AM 48.2 °F - 26.6 °F 43% 30.29 in 10.0 mi South 18.4 mph 23.0 mph N/A   Clear
11:55 AM 51.8 °F - 28.4 °F 41% 30.24 in 10.0 mi South 16.1 mph 25.3 mph N/A   Clear
12:15 PM 51.8 °F - 26.6 °F 38% 30.22 in 10.0 mi South 19.6 mph 27.6 mph N/A   Clear
12:35 PM 51.8 °F - 26.6 °F 38% 30.21 in 10.0 mi South 17.3 mph - N/A   Clear
12:55 PM 51.8 °F - 26.6 °F 38% 30.20 in 10.0 mi South 17.3 mph - N/A   Clear
1:15 PM 51.8 °F - 30.2 °F 44% 30.18 in 10.0 mi South 16.1 mph 20.7 mph N/A   Clear
1:35 PM 51.8 °F - 28.4 °F 41% 30.17 in 8.0 mi SSE 16.1 mph - N/A   Clear
1:55 PM 51.8 °F - 28.4 °F 41% 30.16 in 10.0 mi SSE 13.8 mph - N/A   Clear
2:15 PM 53.6 °F - 32.0 °F 44% 30.15 in 10.0 mi SSE 17.3 mph - N/A   Clear
2:55 PM 53.6 °F - 28.4 °F 38% 30.14 in 10.0 mi South 17.3 mph - N/A   Clear
3:55 PM 51.8 °F - 30.2 °F 44% 30.12 in 10.0 mi SSE 9.2 mph - N/A   Clear
4:15 PM 51.8 °F - 33.8 °F 50% 30.11 in 10.0 mi SSE 10.4 mph - N/A   Clear
4:55 PM 46.4 °F 41.9 °F 33.8 °F 62% 30.10 in 10.0 mi SSE 9.2 mph - N/A   Clear
5:15 PM 46.4 °F 41.9 °F 33.8 °F 62% 30.10 in 10.0 mi SSE 9.2 mph - N/A   Clear
5:35 PM 46.4 °F 41.5 °F 33.8 °F 62% 30.09 in 8.0 mi SE 10.4 mph - N/A   Clear
5:55 PM 46.4 °F 42.4 °F 35.6 °F 66% 30.08 in 10.0 mi SE 8.1 mph - N/A   Clear
6:15 PM 46.4 °F 41.1 °F 33.8 °F 62% 30.08 in 10.0 mi SE 11.5 mph - N/A   Clear
6:55 PM 46.4 °F 41.9 °F 32.0 °F 57% 30.08 in 10.0 mi South 9.2 mph - N/A   Clear
7:15 PM 46.4 °F 41.5 °F 33.8 °F 62% 30.09 in 10.0 mi SSW 10.4 mph - N/A   Clear
7:35 PM 44.6 °F 40.2 °F 33.8 °F 66% 30.10 in 10.0 mi South 8.1 mph - N/A   Clear
7:55 PM 44.6 °F 39.2 °F 33.8 °F 66% 30.11 in 10.0 mi South 10.4 mph - N/A   Clear
8:15 PM 44.6 °F 39.2 °F 33.8 °F 66% 30.10 in 10.0 mi South 10.4 mph - N/A   Clear
8:55 PM 42.8 °F 38.0 °F 33.8 °F 70% 30.09 in 8.0 mi SSE 8.1 mph - N/A   Clear
9:15 PM 42.8 °F 37.0 °F 33.8 °F 70% 30.09 in 10.0 mi SSE 10.4 mph - N/A   Clear
9:35 PM 42.8 °F 37.0 °F 33.8 °F 70% 30.09 in 10.0 mi South 10.4 mph - N/A   Clear
9:55 PM 42.8 °F 37.5 °F 33.8 °F 70% 30.09 in 10.0 mi SSE 9.2 mph - N/A   Clear
10:15 PM 41.0 °F 35.2 °F 35.6 °F 81% 30.08 in 10.0 mi SSE 9.2 mph - N/A   Clear
10:35 PM 41.0 °F 34.7 °F 33.8 °F 76% 30.08 in 10.0 mi South 10.4 mph - N/A   Clear
10:55 PM 41.0 °F 34.7 °F 33.8 °F 76% 30.07 in 10.0 mi SSE 10.4 mph - N/A   Clear
11:15 PM 42.8 °F 37.5 °F 33.8 °F 70% 30.07 in 8.0 mi SSE 9.2 mph - N/A   Clear
11:35 PM 44.6 °F 39.2 °F 33.8 °F 66% 30.07 in 1.5 mi SSE 10.4 mph - N/A   Clear
11:55 PM 44.6 °F 38.8 °F 32.0 °F 61% 30.07 in 9.0 mi SSE 11.5 mph - N/A   Clear